Time,TemperatureF,DewpointF,PressureIn,WindDirection,WindDirectionDegrees,WindSpeedMPH,WindSpeedGustMPH,Humidity,HourlyPrecipIn,Conditions,Clouds,dailyrainin,SoftwareType,DateUTC
2013-09-16 00:14:00,75.6,73.0,30.03,SSE,148,0.0,0.0,92,0.00,,,0.13,weatherlink.com 1.10,2013-09-16 04:14:00,
2013-09-16 00:29:00,75.2,73.0,30.02,SSE,148,0.0,0.0,93,0.00,,,0.13,weatherlink.com 1.10,2013-09-16 04:29:00,
2013-09-16 00:44:00,75.1,73.0,30.03,NE,44,0.0,0.0,94,0.00,,,0.13,weatherlink.com 1.10,2013-09-16 04:44:00,
2013-09-16 01:14:00,75.3,74.0,30.03,NNE,19,0.0,0.0,94,0.00,,,0.13,weatherlink.com 1.10,2013-09-16 05:14:00,
2013-09-16 01:29:00,75.5,74.0,30.03,NNE,29,0.0,0.0,95,0.00,,,0.13,weatherlink.com 1.10,2013-09-16 05:29:00,
2013-09-16 01:44:00,75.6,74.0,30.03,NNE,23,0.0,-999.0,95,-99.99,,,0.13,weatherlink.com 1.10,2013-09-16 05:44:00,
2013-09-16 01:59:00,75.8,74.0,30.03,SE,139,0.0,0.0,95,0.00,,,0.13,weatherlink.com 1.10,2013-09-16 05:59:00,
2013-09-16 02:14:00,76.1,75.0,30.03,NNE,16,0.0,0.0,95,0.00,,,0.13,weatherlink.com 1.10,2013-09-16 06:14:00,
2013-09-16 02:29:00,76.1,75.0,30.03,West,271,0.0,0.0,95,0.00,,,0.13,weatherlink.com 1.10,2013-09-16 06:29:00,
2013-09-16 02:44:00,76.1,75.0,30.03,ENE,63,0.0,0.0,95,0.00,,,0.13,weatherlink.com 1.10,2013-09-16 06:44:00,
2013-09-16 02:59:00,76.0,75.0,30.03,West,278,0.0,0.0,95,0.00,,,0.13,weatherlink.com 1.10,2013-09-16 06:59:00,
2013-09-16 03:14:00,75.9,74.0,30.03,NNE,29,0.0,0.0,95,0.00,,,0.13,weatherlink.com 1.10,2013-09-16 07:14:00,
2013-09-16 03:29:00,75.6,74.0,30.02,NNW,348,0.0,0.0,95,0.00,,,0.13,weatherlink.com 1.10,2013-09-16 07:29:00,
2013-09-16 03:44:00,75.5,74.0,30.02,East,91,0.0,0.0,95,0.00,,,0.13,weatherlink.com 1.10,2013-09-16 07:44:00,
2013-09-16 03:59:00,75.2,74.0,30.01,ENE,57,0.0,0.0,95,0.00,,,0.13,weatherlink.com 1.10,2013-09-16 07:59:00,
2013-09-16 04:14:00,75.0,74.0,30.01,ESE,121,0.0,0.0,95,0.00,,,0.13,weatherlink.com 1.10,2013-09-16 08:14:00,
2013-09-16 04:29:00,75.0,74.0,30.01,SSE,162,0.0,0.0,95,0.00,,,0.13,weatherlink.com 1.10,2013-09-16 08:29:00,
2013-09-16 04:44:00,74.9,73.0,30.01,SE,145,0.0,0.0,95,0.00,,,0.13,weatherlink.com 1.10,2013-09-16 08:44:00,
2013-09-16 04:59:00,74.9,73.0,30.02,North,8,0.0,0.0,95,0.00,,,0.13,weatherlink.com 1.10,2013-09-16 08:59:00,
2013-09-16 05:44:00,74.6,73.0,30.02,NNE,13,0.0,0.0,95,0.00,,,0.13,weatherlink.com 1.10,2013-09-16 09:44:00,
2013-09-16 06:14:00,74.2,73.0,30.02,North,6,0.0,0.0,96,0.00,,,0.13,weatherlink.com 1.10,2013-09-16 10:14:00,
2013-09-16 06:29:00,74.2,73.0,30.02,North,356,0.0,0.0,96,0.00,,,0.13,weatherlink.com 1.10,2013-09-16 10:29:00,
2013-09-16 06:44:00,74.1,73.0,30.03,NNE,20,0.0,0.0,96,0.00,,,0.13,weatherlink.com 1.10,2013-09-16 10:44:00,
2013-09-16 06:59:00,74.2,73.0,30.03,NE,40,0.0,0.0,96,0.00,,,0.13,weatherlink.com 1.10,2013-09-16 10:59:00,
2013-09-16 07:14:00,74.1,73.0,30.04,North,8,0.0,0.0,96,0.00,,,0.13,weatherlink.com 1.10,2013-09-16 11:14:00,
2013-09-16 07:29:00,74.1,73.0,30.05,NNE,12,0.0,0.0,96,0.00,,,0.13,weatherlink.com 1.10,2013-09-16 11:29:00,
2013-09-16 07:59:00,74.6,73.0,30.06,NNE,29,0.0,0.0,96,0.00,,,0.13,weatherlink.com 1.10,2013-09-16 11:59:00,
2013-09-16 08:14:00,75.1,74.0,30.07,NNE,23,0.0,0.0,96,0.00,,,0.13,weatherlink.com 1.10,2013-09-16 12:14:00,
2013-09-16 08:29:00,75.8,75.0,30.07,NNE,27,0.0,0.0,96,0.00,,,0.13,weatherlink.com 1.10,2013-09-16 12:29:00,
2013-09-16 08:44:00,76.8,75.0,30.07,NE,43,0.0,0.0,95,0.00,,,0.13,weatherlink.com 1.10,2013-09-16 12:44:00,
2013-09-16 08:59:00,78.2,76.0,30.06,ENE,63,0.0,0.0,93,0.00,,,0.13,weatherlink.com 1.10,2013-09-16 12:59:00,
2013-09-16 09:14:00,79.0,76.0,30.05,South,174,0.0,5.0,91,0.00,,,0.13,weatherlink.com 1.10,2013-09-16 13:14:00,
2013-09-16 09:29:00,79.6,76.0,30.05,North,5,0.0,4.0,89,0.00,,,0.13,weatherlink.com 1.10,2013-09-16 13:29:00,
2013-09-16 09:44:00,80.5,76.0,30.06,NNE,25,0.0,3.0,87,0.00,,,0.13,weatherlink.com 1.10,2013-09-16 13:44:00,
2013-09-16 09:59:00,81.3,76.0,30.05,SE,128,0.0,2.0,84,0.00,,,0.13,weatherlink.com 1.10,2013-09-16 13:59:00,
2013-09-16 10:14:00,82.0,76.0,30.06,NW,305,0.0,6.0,81,0.00,,,0.13,weatherlink.com 1.10,2013-09-16 14:14:00,
2013-09-16 10:29:00,82.7,76.0,30.05,NW,309,0.0,6.0,79,0.00,,,0.13,weatherlink.com 1.10,2013-09-16 14:29:00,
2013-09-16 10:44:00,83.6,76.0,30.05,ENE,58,0.0,3.0,78,0.00,,,0.13,weatherlink.com 1.10,2013-09-16 14:44:00,
2013-09-16 10:59:00,84.3,76.0,30.05,SSE,148,0.0,4.0,77,0.00,,,0.13,weatherlink.com 1.10,2013-09-16 14:59:00,
2013-09-16 11:14:00,85.3,76.0,30.05,ENE,69,3.0,8.0,74,0.00,,,0.13,weatherlink.com 1.10,2013-09-16 15:14:00,
2013-09-16 11:29:00,85.7,75.0,30.05,SE,124,0.0,7.0,71,0.00,,,0.13,weatherlink.com 1.10,2013-09-16 15:29:00,
2013-09-16 11:44:00,86.4,76.0,30.05,North,11,3.0,5.0,70,0.00,,,0.13,weatherlink.com 1.10,2013-09-16 15:44:00,
2013-09-16 11:59:00,86.9,76.0,30.05,WSW,257,2.0,11.0,69,0.00,,,0.13,weatherlink.com 1.10,2013-09-16 15:59:00,
2013-09-16 12:14:00,87.7,75.0,30.04,SW,226,0.0,7.0,65,0.00,,,0.13,weatherlink.com 1.10,2013-09-16 16:14:00,
2013-09-16 12:29:00,88.0,75.0,30.04,South,186,0.0,6.0,65,0.00,,,0.13,weatherlink.com 1.10,2013-09-16 16:29:00,
2013-09-16 12:44:00,88.3,76.0,30.04,East,85,0.0,3.0,66,0.00,,,0.13,weatherlink.com 1.10,2013-09-16 16:44:00,
2013-09-16 13:14:00,89.2,76.0,30.02,ESE,121,0.0,8.0,66,0.00,,,0.13,weatherlink.com 1.10,2013-09-16 17:14:00,
2013-09-16 13:29:00,89.6,77.0,30.01,ESE,111,0.0,8.0,66,0.00,,,0.13,weatherlink.com 1.10,2013-09-16 17:29:00,
2013-09-16 13:59:00,90.3,77.0,30.00,West,278,0.0,9.0,65,0.00,,,0.00,weatherlink.com 1.10,2013-09-16 17:59:00,
2013-09-16 14:14:00,90.2,77.0,30.00,SE,125,4.0,5.0,65,0.00,,,0.00,weatherlink.com 1.10,2013-09-16 18:14:00,
2013-09-16 14:29:00,89.7,76.0,30.00,SE,131,0.0,5.0,65,0.00,,,0.00,weatherlink.com 1.10,2013-09-16 18:29:00,
2013-09-16 14:44:00,90.7,77.0,30.00,ESE,113,0.0,7.0,64,0.00,,,0.00,weatherlink.com 1.10,2013-09-16 18:44:00,
2013-09-16 15:15:00,92.5,77.0,29.99,NNE,29,0.0,6.0,60,0.00,,,0.00,weatherlink.com 1.10,2013-09-16 19:15:00,
2013-09-16 15:30:00,92.3,76.0,29.98,SSW,195,0.0,4.0,59,0.00,,,0.00,weatherlink.com 1.10,2013-09-16 19:30:00,
2013-09-16 15:45:00,92.8,75.0,29.98,SSW,201,0.0,5.0,56,0.00,,,0.00,weatherlink.com 1.10,2013-09-16 19:45:00,
2013-09-16 16:00:00,92.7,75.0,29.97,South,181,0.0,9.0,57,0.00,,,0.00,weatherlink.com 1.10,2013-09-16 20:00:00,
2013-09-16 16:15:00,92.4,75.0,29.98,SSE,155,4.0,9.0,57,0.00,,,0.00,weatherlink.com 1.10,2013-09-16 20:15:00,
2013-09-16 16:30:00,82.8,74.0,30.00,SE,139,11.0,22.0,75,0.00,,,0.00,weatherlink.com 1.10,2013-09-16 20:30:00,
2013-09-16 16:45:00,79.9,74.0,30.00,SSW,193,13.0,20.0,82,0.00,,,0.00,weatherlink.com 1.10,2013-09-16 20:45:00,
2013-09-16 17:00:00,78.1,74.0,29.98,SSE,160,6.0,12.0,86,0.07,,,0.07,weatherlink.com 1.10,2013-09-16 21:00:00,
2013-09-16 17:15:00,77.0,74.0,30.00,ENE,70,0.0,14.0,91,0.16,,,0.16,weatherlink.com 1.10,2013-09-16 21:15:00,
2013-09-16 17:30:00,76.7,74.0,30.01,SE,125,0.0,12.0,91,0.16,,,0.16,weatherlink.com 1.10,2013-09-16 21:30:00,
2013-09-16 17:45:00,76.4,74.0,30.00,SSE,165,0.0,0.0,92,0.16,,,0.16,weatherlink.com 1.10,2013-09-16 21:45:00,
2013-09-16 18:00:00,76.4,74.0,30.00,SE,125,0.0,1.0,92,0.08,,,0.16,weatherlink.com 1.10,2013-09-16 22:00:00,
2013-09-16 18:15:00,76.6,75.0,30.00,SE,125,0.0,0.0,93,0.00,,,0.16,weatherlink.com 1.10,2013-09-16 22:15:00,
2013-09-16 18:30:00,76.8,75.0,30.00,SE,126,0.0,0.0,93,0.00,,,0.16,weatherlink.com 1.10,2013-09-16 22:30:00,
2013-09-16 18:45:00,76.6,75.0,30.00,SE,129,0.0,0.0,93,0.00,,,0.16,weatherlink.com 1.10,2013-09-16 22:45:00,
2013-09-16 19:00:00,76.5,74.0,30.01,NNE,30,0.0,0.0,93,0.00,,,0.16,weatherlink.com 1.10,2013-09-16 23:00:00,
2013-09-16 19:15:00,76.4,75.0,30.00,NNE,30,0.0,0.0,94,0.00,,,0.16,weatherlink.com 1.10,2013-09-16 23:15:00,
2013-09-16 19:30:00,76.6,75.0,30.00,NNE,30,0.0,0.0,94,0.00,,,0.16,weatherlink.com 1.10,2013-09-16 23:30:00,
2013-09-16 19:45:00,76.7,75.0,30.00,NNE,30,0.0,0.0,94,0.00,,,0.16,weatherlink.com 1.10,2013-09-16 23:45:00,
2013-09-16 20:00:00,76.5,75.0,29.99,NNE,30,0.0,0.0,94,0.00,,,0.16,weatherlink.com 1.10,2013-09-17 00:00:00,
2013-09-16 20:30:00,76.4,75.0,29.99,NNE,19,0.0,0.0,95,0.00,,,0.16,weatherlink.com 1.10,2013-09-17 00:30:00,
2013-09-16 20:45:00,76.4,75.0,30.00,NNE,22,0.0,0.0,95,0.00,,,0.16,weatherlink.com 1.10,2013-09-17 00:45:00,
2013-09-16 21:00:00,76.2,75.0,30.01,NE,34,0.0,0.0,95,0.00,,,0.16,weatherlink.com 1.10,2013-09-17 01:00:00,
2013-09-16 21:15:00,76.0,75.0,30.01,NE,34,0.0,0.0,95,0.00,,,0.16,weatherlink.com 1.10,2013-09-17 01:15:00,
2013-09-16 21:45:00,75.9,74.0,30.02,ENE,58,0.0,0.0,95,0.00,,,0.16,weatherlink.com 1.10,2013-09-17 01:45:00,
2013-09-16 22:00:00,75.7,74.0,30.02,NNE,18,0.0,0.0,95,0.00,,,0.16,weatherlink.com 1.10,2013-09-17 02:00:00,
2013-09-16 22:15:00,75.6,74.0,30.02,SW,218,0.0,0.0,95,0.00,,,0.16,weatherlink.com 1.10,2013-09-17 02:15:00,
2013-09-16 22:30:00,75.6,74.0,30.02,North,359,0.0,0.0,94,0.00,,,0.16,weatherlink.com 1.10,2013-09-17 02:30:00,
2013-09-16 22:45:00,75.6,74.0,30.02,North,6,0.0,0.0,94,0.00,,,0.16,weatherlink.com 1.10,2013-09-17 02:45:00,
2013-09-16 23:00:00,75.6,74.0,30.02,NNW,346,0.0,0.0,94,0.00,,,0.16,weatherlink.com 1.10,2013-09-17 03:00:00,
2013-09-16 23:15:00,75.6,74.0,30.02,SSE,162,0.0,0.0,94,0.00,,,0.16,weatherlink.com 1.10,2013-09-17 03:15:00,
2013-09-16 23:30:00,75.5,74.0,30.02,SE,142,0.0,0.0,94,0.00,,,0.16,weatherlink.com 1.10,2013-09-17 03:30:00,
2013-09-16 23:45:00,75.3,74.0,30.02,ESE,117,0.0,0.0,94,0.00,,,0.16,weatherlink.com 1.10,2013-09-17 03:45:00,